This is the latest recevied weather packets stored in our database for station/object KC2TER. If no packets are shown the sender has not sent any weather packets the latest 10 day(s).
| Time | Temp. | Humidity | Pressure | Rain* | Wind** | Luminosity | Snow |
|---|---|---|---|---|---|---|---|
| 1777927052 | 20.56° C | 52% | 1009.9 hPa | 0 mm | - | 340 W/m² | - |
| 1777926749 | 20.56° C | 55% | 1009.7 hPa | 0 mm | - | 348 W/m² | - |
| 1777926449 | 21.11° C | 52% | 1009.8 hPa | 0 mm | - | 383 W/m² | - |
| 1777926147 | 21.11° C | 53% | 1010 hPa | 0 mm | - | 386 W/m² | - |
| 1777925844 | 21.11° C | 53% | 1009.9 hPa | 0 mm | - | 415 W/m² | - |
| 1777925541 | 21.67° C | 52% | 1009.7 hPa | 0 mm | - | 416 W/m² | - |
| 1777925238 | 21.67° C | 53% | 1010.1 hPa | 0 mm | - | 445 W/m² | - |
| 1777924934 | 21.11° C | 53% | 1010.2 hPa | 0 mm | - | 463 W/m² | - |
| 1777924631 | 21.11° C | 54% | 1010.1 hPa | 0 mm | - | 464 W/m² | - |
| 1777924327 | 21.67° C | 54% | 1010.3 hPa | 0 mm | - | 505 W/m² | - |
| 1777924024 | 21.67° C | 53% | 1010.2 hPa | 0 mm | - | 550 W/m² | - |
| 1777923720 | 22.22° C | 53% | 1010.1 hPa | 0 mm | - | 580 W/m² | - |
| 1777923416 | 22.22° C | 53% | 1010.2 hPa | 0 mm | - | 581 W/m² | - |
| 1777923114 | 22.22° C | 52% | 1010.1 hPa | 0 mm | - | 588 W/m² | - |
| 1777922812 | 22.78° C | 51% | 1010.2 hPa | 0 mm | - | 622 W/m² | - |
| 1777922510 | 22.22° C | 51% | 1010.5 hPa | 0 mm | - | 632 W/m² | - |
| 1777922208 | 22.22° C | 49% | 1010.4 hPa | 0 mm | - | 645 W/m² | - |
| 1777921904 | 23.33° C | 44% | 1010.5 hPa | 0 mm | - | 685 W/m² | - |
| 1777921600 | 22.78° C | 35% | 1010.5 hPa | 0 mm | - | 691 W/m² | - |
| 1777921297 | 22.78° C | 36% | 1010.8 hPa | 0 mm | - | 644 W/m² | - |
| 1777920993 | 22.78° C | 34% | 1010.8 hPa | 0 mm | - | 682 W/m² | - |
| 1777920690 | 23.33° C | 34% | 1010.8 hPa | 0 mm | - | 748 W/m² | - |
| 1777920386 | 22.22° C | 35% | 1010.8 hPa | 0 mm | - | 775 W/m² | - |
| 1777920081 | 22.22° C | 36% | 1011 hPa | 0 mm | - | 789 W/m² | - |
| 1777919779 | 21.67° C | 36% | 1010.9 hPa | 0 mm | - | 787 W/m² | - |
* Rain latest hour (hover to see other rain measurements)
** Current wind speed in m/s (hover to see current wind gust speed)